Regional Weather Roundup
Issued by NWS

Home | Current Version | Previous Version | Graphics & Text | Print | Product List | Glossary On
Versions: 1 2 3 4 5 6 7 8 9 10 11 12 13 14 15 16 17 18 19 20 21 22 23 24 25 26 27 28 29 30 31 32 33 34 35 36 37 38 39 40 41 42 43 44 45 46 47 48 49 50
000
ASUS45 KABQ 032210
RWRNM
NEW MEXICO REGIONAL WEATHER ROUNDUP
NATIONAL WEATHER SERVICE ALBUQUERQUE NM
300 PM MST SAT DEC 03 2016

NOTE: "FAIR" MEANS FEW OR NO CLOUDS BELOW 12,000 FEET AGL WITH NO
       SIGNIFICANT WEATHER OR OBSTRUCTIONS TO VISION.

      THIS PRODUCT IS RELEASED AS TWO VERSIONS.  ONE VERSION NEAR
      THE TOP OF THE HOUR CONTAINING PRELIMINARY DATA FROM ALBUQUERQUE
      AND OTHER STATIONS.  A FINAL VERSION WITH ADDITIONAL DATA IS
      ISSUED ABOUT 10 MINUTES AFTER THE HOUR.

NMZ501-503-504-510>518-032300-
NORTHWEST PLATEAU/NORTHCENTRAL MOUNTAINS

CITY           SKY/WX    TMP DP  RH WIND       PRES   REMARKS
FARMINGTON     FAIR      39  24  55 W12       30.05F WCI  32
LOS ALAMOS     FAIR      40  24  54 E6        29.98F
SANTA FE       FAIR      46  22  38 N10       29.95F
TAOS           FAIR      36  19  51 N6        29.99F WCI  31
ANGEL FIRE     FAIR      34  17  49 W14       29.97S WCI  24

$$
NMZ402-403-502-505>509-032300-
WESTCENTRAL MOUNTAINS/SOUTHWEST MOUNTAINS

CITY           SKY/WX    TMP DP  RH WIND       PRES   REMARKS
GALLUP         FAIR      43  25  49 VRB6      30.04F
GRANTS         FAIR      41  26  55 N9G18     30.03F

$$
NMZ407-409-411-412-032300-
SOUTHERN DESERTS

CITY           SKY/WX    TMP DP  RH WIND       PRES   REMARKS
DEMING         CLOUDY    45  37  73 E6        29.94F
LAS CRUCES     CLOUDY    47  34  59 N6        29.95R
HOLLOMAN AFB   PTSUNNY   45  38  75 SE3       29.95F
T OR C         FAIR      49  30  48 NE10      29.94F

$$
NMZ519>523-032300-
CENTRAL VALLEYS/CENTRAL HIGHLANDS

CITY           SKY/WX    TMP DP  RH WIND       PRES   REMARKS
ALBUQUERQUE    FAIR      47  27  45 N8        29.98F
DOUBLE EAGLE   MOSUNNY   46  27  46 N12G17    29.99F
MORIARTY ARPT  FAIR      46  27  48 W8        29.97F
CLINES CORNERS CLOUDY    41  26  55 NW13      29.96S
BELEN          FAIR      46  30  52 CALM      29.99F
SOCORRO        FAIR      47  29  50 N12G26    29.99S

$$
NMZ524>526-539-540-032300-
SOUTHCENTRAL MOUNTAINS

CITY           SKY/WX    TMP DP  RH WIND       PRES   REMARKS
RUIDOSO        FAIR      32  32 100 NE5       29.98F WCI  27

$$
NMZ527>531-032300-
NORTHEAST HIGHLANDS/NORTHEAST PLAINS

CITY           SKY/WX    TMP DP  RH WIND       PRES   REMARKS
LAS VEGAS      FAIR      45  27  49 S17       29.91F
RATON          FAIR      37  26  64 SW7       29.91F WCI  32
CLAYTON        FAIR      41  33  73 S17       29.92F

$$
NMZ532>537-032300-
EASTCENTRAL PLAINS

CITY           SKY/WX    TMP DP  RH WIND       PRES   REMARKS
TUCUMCARI      CLOUDY    40  35  83 S7        29.97F
CANNON AFB     CLOUDY    38  38 100 CALM      29.97F
CLOVIS AIRPORT CLOUDY    37  34  87 CALM      29.98S

$$
NMZ028-029-538-032300-
SOUTHEAST PLAINS

CITY           SKY/WX    TMP DP  RH WIND       PRES   REMARKS
ROSWELL        CLOUDY    40  34  79 N5        30.00F
ARTESIA        LGT RAIN  37  37 100 N7        29.99F WCI  32
CARLSBAD       LGT RAIN  37  37 100 NW10      30.00F WCI  30
HOBBS          CLOUDY    39  39 100 N8        29.99S WCI  34


$$



USA.gov is the U.S. government's official web portal to all federal, state and local government web resources and services.